Theta_e
363 363 363 362 360 353 344 345 324 332 330 318 320 323 319 333 334 333 332 337 333 340 344 343 341 338 334 334 337 339 336 330 333 322 323 342 356 355 358 360 358 358 357 360 365 366 367 367 366 366 366 367 367 366 366 366 366 366 365 365 365 365 364 365 365 365 365 365 364 364 364 365 364 363 362 362 362 361 361 361 361 361 362 361 360 362 362 361 361 361 359 361 360 358 357 356 359
359 362 361 359 352 342 339 345 327 326 325 320 321 326 326 332 332 328 327 333 337 339 342 343 342 343 341 341 340 339 337 343 343 339 346 351 354 353 357 359 358 356 356 360 363 363 364 368 366 367 366 366 366 367 367 366 365 364 364 365 365 365 364 365 365 365 365 365 364 364 364 364 363 362 362 361 361 361 360 360 360 360 361 361 362 362 361 361 360 360 360 359 361 360 360 359 357
358 359 357 357 347 345 343 341 321 320 317 314 320 323 330 330 327 332 335 338 342 343 343 342 343 342 337 338 334 338 334 345 345 346 346 353 347 352 357 359 360 358 358 359 361 363 364 367 366 367 366 366 366 366 366 366 365 364 366 366 366 364 364 363 363 363 363 364 364 364 364 363 363 363 362 362 361 361 360 360 360 362 360 361 361 359 361 361 361 361 362 361 360 360 360 359 357
359 359 354 350 340 344 334 334 326 321 317 317 317 326 326 326 331 335 338 341 341 342 343 339 335 342 337 331 337 339 340 343 348 347 346 349 351 354 358 360 363 359 359 361 361 362 364 368 367 368 367 367 367 366 366 366 365 364 364 364 365 365 362 361 363 363 363 363 363 363 363 362 362 362 362 362 362 362 362 361 359 361 361 359 360 360 360 359 359 360 360 360 360 361 361 359 359
358 357 357 349 343 333 336 326 325 324 316 320 314 323 326 328 332 334 337 341 342 342 342 337 336 341 343 341 344 338 340 347 347 350 349 353 356 357 359 361 360 360 359 361 362 361 365 367 367 367 367 367 366 367 367 367 365 363 363 364 365 365 362 361 361 364 364 363 364 363 363 362 363 361 362 362 361 361 361 362 360 361 360 360 361 360 360 360 359 359 360 360 360 359 359 358 358
356 356 357 352 340 343 338 323 321 320 325 327 321 325 327 332 335 335 338 342 344 344 342 337 337 335 337 343 345 342 349 343 350 350 352 352 356 358 360 361 361 359 361 362 361 363 366 369 368 368 368 367 367 367 367 367 366 364 364 364 365 365 361 361 363 364 363 364 363 363 363 363 364 363 363 362 362 361 362 362 362 361 362 361 362 360 362 362 359 359 359 359 360 359 359 359 358
351 351 347 347 347 345 324 319 318 320 326 332 327 327 327 329 334 337 337 338 343 343 344 339 342 338 335 341 343 350 354 356 353 350 354 354 357 358 360 360 359 360 361 362 363 364 367 368 368 368 367 367 367 367 367 366 366 365 364 365 365 365 362 361 361 363 363 364 363 364 363 364 363 363 361 363 361 362 362 361 362 362 362 361 361 361 362 361 362 358 359 358 360 359 360 359 359
355 343 343 336 329 331 322 322 321 325 326 335 333 328 332 334 335 334 334 334 333 335 340 343 341 337 337 345 339 349 356 357 356 355 356 355 357 359 360 360 358 360 362 363 364 364 370 368 368 368 367 367 367 367 368 366 366 365 364 365 366 365 362 361 362 363 363 363 363 364 363 364 364 363 363 361 361 361 362 363 362 362 361 360 360 360 361 362 361 359 358 357 358 360 357 357 357
353 349 352 337 324 328 322 320 323 330 331 334 332 336 336 338 337 335 333 336 337 340 339 340 343 335 341 340 342 349 351 356 357 358 356 356 357 357 359 359 358 359 361 362 363 365 369 368 368 369 368 367 368 367 368 367 365 365 365 365 365 364 363 361 361 363 363 363 363 362 363 363 364 363 363 363 361 361 362 362 361 361 361 360 359 359 360 360 359 360 360 359 357 358 359 359 358
351 347 332 330 329 320 321 320 320 325 331 336 336 335 337 338 334 337 335 335 338 340 339 344 343 339 341 337 341 348 352 358 356 354 356 356 357 359 358 358 358 358 359 360 362 364 366 369 368 369 368 367 367 367 367 366 365 364 365 366 365 363 363 361 361 362 362 362 362 362 361 362 362 363 362 361 365 364 363 361 361 362 361 360 360 359 360 360 359 359 359 359 359 359 358 357 358
343 350 347 328 321 319 319 319 323 330 332 335 338 343 341 340 337 337 338 336 339 337 340 344 338 339 341 340 342 354 358 358 354 350 354 356 357 358 358 360 359 359 358 360 364 363 365 368 369 368 369 368 367 367 367 366 366 365 365 364 364 363 363 361 360 361 361 362 361 362 362 361 362 362 362 361 362 361 360 361 361 361 361 361 360 359 359 360 360 360 359 359 358 357 356 356 356
338 333 340 322 318 320 320 320 322 328 332 336 334 343 343 339 339 335 334 333 336 337 338 344 339 344 339 338 340 350 355 355 357 355 354 355 355 357 358 359 359 359 359 361 362 363 366 368 369 370 369 368 367 367 366 366 365 365 364 364 363 363 363 362 359 361 361 361 361 361 361 361 361 362 362 362 361 359 358 358 360 361 361 360 360 360 360 361 360 360 359 359 358 357 357 357 356
338 337 330 322 319 322 323 323 322 329 330 332 335 342 345 339 336 337 336 337 337 335 337 344 348 346 337 337 347 353 351 354 357 354 355 355 356 356 359 359 359 359 360 362 361 364 365 366 366 371 368 368 368 367 366 365 365 365 365 364 363 363 361 361 360 361 361 361 361 361 361 360 361 361 361 359 359 358 358 358 357 359 361 361 360 361 359 361 359 359 358 358 358 358 356 357 356
339 337 336 322 329 324 321 321 325 321 325 334 341 344 344 340 338 340 339 334 337 337 344 349 350 347 339 340 342 346 349 356 356 354 354 353 356 356 357 359 359 359 361 363 362 364 365 366 366 366 369 370 370 368 366 364 365 364 364 364 363 362 361 361 360 361 360 361 361 361 360 361 361 360 362 361 360 359 359 356 358 358 360 360 361 361 359 359 359 359 358 358 358 358 357 355 355
342 342 336 329 320 324 324 320 321 322 325 337 339 343 342 343 342 340 340 334 337 346 349 353 352 342 334 336 338 344 349 357 357 357 355 353 354 356 359 359 359 359 360 360 361 364 365 366 365 367 370 369 369 370 368 367 365 364 364 364 363 362 361 360 360 361 362 361 361 361 361 361 361 361 363 361 360 358 359 357 356 355 357 358 358 359 359 359 359 357 357 357 358 357 357 356 355
345 342 335 325 319 322 321 324 327 325 325 339 341 344 342 342 344 339 340 343 340 346 348 342 350 342 344 341 345 350 354 358 359 359 353 353 355 355 356 357 358 359 361 361 362 364 365 365 366 366 367 368 368 367 368 368 366 364 363 363 363 362 360 360 359 360 361 361 361 361 361 364 363 362 363 362 360 359 358 357 352 352 355 356 357 357 358 359 357 357 356 356 358 357 356 357 354
345 343 326 320 318 321 322 324 326 319 330 338 344 343 336 338 344 346 348 350 340 340 342 346 346 350 346 346 351 352 355 359 358 357 354 352 352 350 353 357 357 358 359 359 362 363 366 365 366 366 367 367 365 368 367 367 367 365 364 363 361 361 361 360 359 359 361 362 361 360 361 364 368 369 365 364 358 358 357 357 352 352 350 353 357 357 358 357 357 356 357 356 356 357 357 357 357
342 328 324 318 322 321 327 326 328 331 333 338 341 342 339 335 341 343 350 343 343 342 341 344 348 347 350 350 353 355 356 355 356 354 350 348 349 348 349 353 354 354 356 356 360 361 363 364 366 367 366 367 367 365 365 367 368 365 366 367 367 366 363 361 366 366 361 366 361 363 366 365 364 369 368 362 368 360 358 360 360 360 355 356 355 358 359 357 355 356 356 356 357 357 356 363 358
335 329 324 317 324 329 335 332 332 336 335 340 342 343 340 338 340 341 339 338 341 339 340 343 341 345 350 351 351 353 355 354 353 352 348 348 346 345 346 349 352 353 354 356 357 359 362 364 364 365 365 366 365 366 362 366 366 368 369 368 367 361 363 365 366 367 367 366 367 365 364 364 363 366 367 365 365 361 361 364 364 363 361 359 359 361 360 356 356 356 356 357 357 357 363 363 363
334 332 321 322 331 334 338 336 334 337 339 338 339 340 342 340 342 344 337 335 339 338 338 340 341 342 346 350 351 353 352 353 353 352 348 347 350 348 349 347 348 352 353 355 356 359 360 362 364 364 364 365 363 363 363 363 364 368 365 365 364 365 365 365 365 366 366 366 363 364 360 362 363 365 361 363 366 369 367 367 366 364 365 364 364 362 358 358 358 356 357 357 358 362 364 361 362
331 331 323 326 330 332 335 338 339 339 341 338 338 339 339 343 345 343 339 335 333 338 341 341 342 343 345 346 351 353 352 351 352 352 351 349 350 351 348 349 348 349 353 355 357 357 359 362 361 363 364 365 364 362 363 361 364 364 363 363 364 361 361 362 362 364 364 365 365 364 359 360 359 362 363 365 365 365 364 366 367 365 364 363 366 360 358 361 360 363 364 362 367 366 364 364 364
333 327 330 331 333 330 335 337 340 339 341 339 338 335 336 343 343 340 339 335 330 338 343 343 345 346 347 347 351 353 352 350 350 353 350 349 347 350 351 352 352 351 353 353 355 357 359 361 361 362 362 363 363 362 362 361 363 361 363 361 362 362 361 360 360 361 360 365 363 360 362 359 358 358 360 362 364 363 361 361 362 366 367 369 365 361 360 360 360 363 368 366 365 365 364 365 365
325 330 332 334 333 331 338 339 338 340 338 337 335 340 342 339 338 341 339 338 341 346 346 348 347 347 348 349 350 352 352 350 350 347 348 348 349 350 351 351 351 349 351 352 355 356 358 359 363 363 362 361 362 363 363 364 363 363 362 361 361 358 360 359 356 356 359 364 364 360 356 354 353 351 353 358 360 360 359 358 359 363 366 365 369 367 365 362 360 364 366 366 365 366 365 364 365
330 328 333 332 334 334 337 339 342 340 339 338 341 344 337 337 331 341 338 341 342 345 347 348 347 349 349 348 350 351 353 351 348 349 350 350 351 351 353 351 352 353 353 351 352 354 358 357 361 363 364 363 364 364 366 365 365 364 363 362 363 360 360 360 356 357 359 360 365 362 360 353 349 349 351 352 352 355 357 360 361 360 358 358 365 369 364 366 368 367 370 368 365 367 365 364 363
329 330 333 333 335 336 338 340 341 343 343 344 344 337 336 338 337 340 338 341 344 345 347 348 348 349 348 348 348 349 346 351 350 349 351 351 353 355 355 353 352 352 350 351 351 352 355 357 359 360 360 364 363 363 363 365 364 365 363 361 360 361 363 358 357 362 359 359 360 364 364 352 348 348 348 349 352 353 353 355 357 357 359 360 361 364 367 364 367 366 369 368 368 367 366 365 364
329 332 334 334 334 337 338 340 340 342 343 344 339 336 338 339 344 336 340 342 344 344 343 345 346 345 345 344 346 344 342 344 347 348 350 352 354 353 353 353 351 348 351 352 352 352 353 355 355 356 358 362 363 362 365 366 366 364 363 362 360 363 361 362 363 358 359 357 355 360 362 358 350 346 347 348 349 351 352 357 360 360 358 358 356 360 366 366 361 365 367 369 368 367 365 366 363
334 334 334 333 334 335 336 336 339 342 342 342 337 335 336 341 339 328 341 344 346 343 341 343 343 343 344 342 343 343 346 345 343 347 346 346 349 351 353 355 355 353 353 351 352 353 355 354 352 355 357 362 362 361 365 368 367 364 363 362 362 362 361 362 362 360 357 356 358 365 367 365 357 348 346 350 351 351 357 361 359 360 358 357 359 357 364 364 365 364 364 365 367 367 366 366 365
335 335 334 333 334 334 335 336 337 340 338 340 339 333 337 337 337 332 339 343 346 343 340 342 343 343 342 345 345 342 340 348 348 349 346 345 345 348 352 352 353 354 353 353 354 355 352 352 353 356 357 360 362 359 364 363 364 363 364 362 360 361 364 361 358 359 359 357 359 363 364 360 360 353 352 353 351 354 358 358 359 360 359 357 360 358 359 366 366 366 363 365 367 367 365 367 366
335 334 328 329 330 331 334 333 337 340 335 341 341 334 333 332 331 337 340 345 344 342 341 342 341 342 344 345 346 343 342 347 349 348 349 348 349 351 353 357 354 354 355 356 353 352 352 354 358 358 358 361 361 358 358 360 361 360 361 361 361 361 362 362 360 360 359 361 363 365 367 366 368 359 356 361 362 360 361 360 359 360 360 361 359 359 358 364 365 366 365 366 364 364 363 364 366
335 332 329 326 327 328 333 337 337 335 338 340 336 319 322 330 334 339 343 344 343 341 340 340 341 341 342 343 344 345 345 347 347 350 350 350 350 351 353 355 355 356 356 355 356 355 355 360 360 361 362 361 362 361 361 359 360 360 361 362 364 363 361 361 361 362 363 362 365 366 365 365 364 364 365 366 366 365 364 362 361 359 360 362 362 359 359 363 362 362 362 362 361 361 362 362 362
325 330 328 319 318 321 332 332 335 333 339 339 335 319 323 331 335 340 344 343 341 338 339 339 341 342 342 342 343 343 346 348 349 349 353 354 353 352 353 355 355 355 354 355 356 359 361 361 362 362 363 362 362 362 362 362 363 363 363 365 365 367 366 367 366 367 365 366 368 365 366 368 367 367 368 370 367 366 360 358 356 360 364 365 362 360 360 360 361 360 361 361 364 360 360 362 361
325 320 317 319 313 322 330 331 331 330 334 339 334 322 322 328 334 340 342 343 342 339 339 339 340 340 343 343 343 344 346 350 352 353 353 354 356 354 355 356 356 355 356 356 358 360 361 361 364 363 365 364 365 365 365 364 365 365 365 365 368 371 368 368 367 367 366 365 368 369 369 367 365 370 371 372 367 366 361 360 362 366 365 365 361 361 363 361 360 359 360 361 358 355 361 361 362
321 315 311 310 312 318 326 329 332 334 334 335 331 321 325 328 335 340 343 341 341 339 338 339 340 339 342 343 343 344 346 347 351 352 353 353 354 354 355 357 357 357 356 357 359 360 361 362 362 363 365 365 365 367 369 368 368 367 368 367 367 368 365 365 365 366 365 365 365 365 368 367 366 366 366 368 367 363 360 360 360 360 364 367 361 360 360 361 360 355 361 364 358 357 356 357 360
314 317 311 312 311 311 315 328 331 332 331 329 332 325 325 330 335 338 341 342 339 337 337 338 339 341 341 343 342 342 344 346 347 350 351 352 353 355 356 355 358 358 357 358 361 362 363 363 363 363 364 366 370 369 369 369 368 368 367 367 366 364 364 364 365 364 362 362 363 364 367 367 364 363 365 365 363 358 358 357 356 358 359 362 361 362 360 359 359 359 358 363 363 360 357 356 357
308 309 309 310 311 315 314 314 328 330 330 326 329 326 326 330 334 336 338 340 339 336 337 338 338 339 341 341 343 343 346 345 345 350 352 353 352 353 353 355 357 358 358 358 360 361 362 363 365 366 362 366 369 369 369 367 366 367 366 366 365 364 363 364 364 364 363 364 363 364 363 363 364 365 365 366 363 360 358 358 359 360 361 361 358 355 357 358 359 357 357 357 362 363 359 360 360
311 311 310 310 309 309 310 320 329 328 327 325 326 324 325 330 332 335 338 338 337 338 339 339 339 339 340 342 342 342 343 344 348 349 352 354 353 352 351 353 355 357 358 357 357 358 359 361 363 365 363 366 365 358 362 364 363 361 360 363 363 361 362 364 364 365 363 363 361 363 363 363 363 363 363 361 362 363 362 360 358 360 360 358 358 355 356 358 357 356 357 355 357 358 361 361 362
314 313 312 310 310 311 319 320 327 328 326 326 326 326 326 328 331 334 337 337 337 337 336 337 339 340 340 340 342 342 343 345 349 350 351 352 352 351 351 352 353 356 356 356 357 357 358 359 362 359 364 366 366 364 364 364 362 361 361 361 358 361 359 361 359 360 360 360 362 364 364 364 362 361 361 361 360 360 362 362 361 361 362 361 358 356 355 357 358 357 357 361 357 355 353 357 359
313 312 311 310 311 309 316 316 327 329 325 323 328 326 326 328 331 334 337 337 335 336 336 337 338 339 340 341 341 342 345 350 350 349 349 350 350 351 351 351 353 351 354 356 356 356 357 360 361 362 363 363 364 365 364 362 360 359 358 358 362 359 359 357 358 360 362 361 361 362 362 363 362 361 362 361 361 359 358 358 359 358 358 359 360 359 356 360 357 354 353 354 357 353 352 353 356
314 312 311 310 310 312 319 326 326 330 324 323 328 324 325 328 331 334 336 335 336 337 337 338 337 339 341 341 342 343 344 346 347 348 348 349 350 351 351 351 353 354 353 355 357 357 358 358 359 359 362 361 361 363 363 361 363 363 358 354 359 358 359 358 357 359 360 359 360 361 361 362 361 359 360 360 358 358 359 360 362 361 359 358 356 358 356 357 360 354 355 352 354 353 354 356 355
313 312 310 308 310 308 307 325 328 328 322 319 327 322 325 330 332 333 338 336 337 338 340 341 340 340 340 340 342 342 343 345 345 347 348 348 350 350 350 350 351 355 356 356 357 357 358 357 358 358 359 362 361 364 364 364 363 362 360 359 358 357 357 358 357 357 357 358 357 357 359 361 361 361 362 360 361 361 362 362 363 362 363 360 357 354 355 356 357 355 354 353 353 347 350 351 356
314 313 311 310 309 309 310 314 324 325 326 325 323 323 322 327 327 329 336 337 338 339 340 340 341 343 343 346 344 345 344 345 346 347 349 350 350 350 351 352 353 353 355 356 356 356 357 357 359 359 360 362 363 363 364 363 360 358 358 357 358 357 357 357 355 354 355 356 355 358 361 364 363 362 363 363 364 364 364 363 362 360 359 359 357 355 355 356 357 356 355 357 352 352 348 349 352
311 313 312 310 310 309 310 318 317 316 319 327 323 312 312 325 326 328 332 333 335 338 337 338 340 341 344 343 344 346 347 348 347 348 349 349 350 352 354 354 353 352 354 356 357 357 358 359 361 361 363 363 362 362 363 363 359 356 356 355 354 354 352 352 352 352 353 355 355 357 360 359 361 363 365 365 362 357 361 362 362 362 360 356 356 355 356 357 359 356 356 355 354 357 355 351 348
308 309 312 311 310 310 310 312 315 308 310 323 325 309 305 320 324 327 331 331 332 336 336 336 338 341 342 343 344 344 345 347 349 351 352 351 352 352 353 354 354 355 356 359 359 359 360 361 361 361 362 361 362 360 360 359 357 356 356 354 353 351 351 354 357 358 357 356 359 360 358 362 364 363 361 361 360 362 362 361 362 361 360 358 357 356 356 357 356 356 357 356 355 355 356 352 350
307 313 314 312 311 310 311 312 314 311 319 319 319 318 309 308 321 328 331 329 330 333 334 335 337 340 341 342 343 345 345 346 348 352 353 353 354 353 354 354 355 357 359 359 360 360 361 362 361 362 363 361 361 359 358 358 356 357 354 353 352 353 353 355 357 359 360 361 357 355 357 358 361 363 363 364 365 365 363 362 362 361 360 360 358 356 356 357 356 356 358 361 363 361 356 352 351
311 314 315 313 313 313 313 313 313 317 314 310 319 319 310 310 322 328 329 326 328 330 332 334 338 339 341 342 342 344 345 346 349 350 352 351 354 355 355 355 357 358 359 358 360 360 362 362 360 361 361 361 361 359 359 360 359 357 357 356 354 354 355 356 357 355 354 355 352 353 354 354 355 358 358 359 363 365 364 363 364 363 362 362 362 360 360 358 358 358 360 362 361 359 358 356 352
315 318 317 317 317 315 315 312 315 316 313 308 313 318 307 308 324 325 326 325 326 329 332 333 338 339 340 340 342 344 346 348 349 351 352 353 353 354 355 358 359 359 358 359 359 359 360 360 360 360 361 362 364 362 361 359 359 359 358 356 356 355 353 352 351 351 351 351 351 351 351 352 350 350 353 356 357 360 359 360 360 361 360 360 361 361 360 360 361 361 361 359 361 355 355 352 353
317 317 316 316 316 316 317 316 318 315 307 310 314 316 312 304 312 314 319 322 324 327 332 335 338 339 340 341 342 343 344 346 348 350 351 354 355 353 354 355 355 356 357 360 359 360 359 359 360 360 361 362 361 360 360 358 358 359 356 354 352 350 351 351 348 348 348 348 348 346 348 349 347 345 350 352 353 353 356 358 357 357 358 358 360 361 360 359 359 360 359 360 361 359 356 355 353
315 314 312 313 313 317 316 316 317 306 301 312 315 313 315 305 311 315 321 325 326 327 331 333 335 337 339 341 341 342 344 345 348 348 350 351 353 351 352 352 354 355 355 354 353 355 354 355 355 354 358 356 358 358 358 357 355 355 353 353 351 351 349 347 347 347 345 347 346 346 348 348 349 348 348 348 349 350 353 354 357 358 357 357 357 358 359 359 360 359 358 360 359 359 358 356 355
314 313 313 305 305 307 305 310 303 303 300 315 315 316 311 312 316 317 321 326 328 330 332 333 335 336 339 341 341 342 344 345 347 348 348 350 349 348 348 350 351 351 350 349 350 351 351 352 352 352 352 354 355 355 354 354 353 352 352 352 351 351 349 348 349 348 347 348 347 347 350 348 348 347 345 343 346 350 352 353 353 351 353 355 357 358 359 361 360 358 357 355 357 357 357 356 355
312 311 309 304 300 299 296 300 304 302 312 315 315 321 309 313 315 324 323 327 330 330 332 335 336 338 339 341 342 342 343 345 346 347 348 347 348 347 348 348 348 348 349 349 350 350 350 351 352 351 351 353 353 352 351 351 351 351 351 350 349 349 348 349 349 346 348 349 348 347 346 344 345 345 343 344 348 348 348 350 353 351 355 355 356 357 357 357 359 358 356 355 353 357 359 358 359
312 314 311 307 305 300 297 300 297 299 304 313 318 311 308 306 323 327 328 330 333 331 333 335 337 339 342 342 342 342 342 344 345 346 345 345 347 348 347 347 348 347 347 348 349 349 349 349 349 350 350 351 350 349 350 349 348 350 350 348 348 349 348 348 348 347 348 348 348 346 347 346 344 346 344 349 349 349 349 351 349 350 351 354 356 355 352 353 357 357 356 355 356 355 355 355 355
314 314 315 309 306 311 301 307 303 303 303 305 313 308 311 313 327 329 330 330 331 332 334 335 336 339 341 340 340 340 341 343 344 344 344 347 349 348 349 347 347 346 347 346 346 346 344 345 346 347 348 349 349 348 347 347 347 348 349 349 349 349 348 349 348 349 349 347 349 347 348 347 345 344 347 348 345 348 348 347 348 348 351 349 351 353 353 351 354 351 351 353 354 354 355 355 354
312 314 307 309 316 312 307 308 309 307 304 302 311 310 316 323 323 330 328 327 329 331 333 334 336 339 340 339 340 340 341 342 342 342 343 346 347 348 348 347 345 344 343 344 346 345 345 345 345 346 348 349 347 348 346 348 348 348 348 349 348 347 348 347 346 348 348 350 349 349 347 345 345 345 343 345 346 347 347 347 346 344 347 349 350 351 349 350 352 350 347 351 350 352 353 354 354
316 308 310 318 320 317 311 302 307 303 298 302 307 303 307 309 310 326 325 327 328 329 332 335 338 340 338 339 340 340 341 342 342 343 346 348 348 348 348 346 344 344 343 344 346 347 347 346 345 345 346 346 346 346 345 347 348 347 348 348 348 348 347 346 347 347 349 349 348 348 348 347 345 343 344 342 344 342 345 346 347 347 347 348 348 347 347 347 350 349 349 350 350 352 352 352 352
314 310 320 309 305 303 309 306 298 297 297 300 304 306 307 309 312 319 323 325 325 329 333 335 336 337 338 339 340 341 342 341 340 341 344 345 346 346 347 345 345 346 345 344 345 344 345 346 345 345 345 345 346 347 346 347 348 347 347 348 347 348 347 348 348 350 349 347 344 343 343 344 341 345 345 346 344 342 342 343 344 344 345 347 346 347 348 347 349 348 348 346 348 350 350 351 352
316 317 315 317 313 308 305 307 306 305 298 299 300 305 303 313 313 315 320 326 327 329 331 333 335 336 337 338 338 340 340 339 340 341 344 346 346 346 345 344 343 344 344 340 342 343 342 345 345 345 346 346 347 347 347 346 346 347 346 346 347 348 349 348 349 349 346 344 343 341 340 341 341 341 343 342 343 343 345 344 343 342 342 342 343 345 348 348 348 349 347 346 345 350 348 349 349
309 309 309 312 311 315 312 311 307 303 301 300 300 298 307 313 319 318 320 326 330 331 332 334 335 336 338 339 339 340 340 339 339 340 344 344 344 343 343 344 344 344 344 341 343 342 341 342 344 345 345 345 346 347 347 347 348 347 347 344 345 347 347 347 347 346 346 344 344 345 341 341 342 342 343 344 344 345 346 345 345 344 343 344 346 346 346 347 348 347 347 349 349 349 348 346 347
311 309 308 310 307 305 302 301 310 307 303 300 300 299 309 316 319 321 324 328 331 332 334 334 335 336 338 339 340 341 340 339 339 340 341 340 342 343 342 343 344 343 344 343 341 341 341 341 342 343 343 345 346 345 348 349 349 348 347 346 345 347 348 348 347 346 345 343 341 343 343 343 342 343 345 343 343 341 341 340 342 342 345 346 346 346 347 347 347 345 348 346 346 347 347 347 348
Wind_Speed
12 10 8 5 3 2 5 4 5 4 5 5 3 3 3 2 3 3 5 6 6 3 3 3 9 9 1 5 5 6 4 3 8 2 4 3 5 11 10 14 16 16 15 12 12 12 12 12 11 13 14 14 14 14 14 13 12 12 11 11 10 10 9 9 8 9 10 10 10 10 10 10 9 9 9 9 8 8 8 8 8 7 7 8 7 8 7 7 6 6 6 7 7 12 16 15 13
10 9 7 5 3 2 3 1 3 6 6 4 3 6 1 4 1 2 7 2 5 5 4 6 8 4 2 3 3 2 8 9 9 9 7 6 11 10 13 15 16 17 14 12 12 12 12 12 9 12 13 13 13 14 13 13 12 12 12 11 11 10 8 9 9 9 10 9 9 9 9 9 9 9 8 8 8 8 7 8 8 7 7 6 6 6 6 6 6 6 7 6 6 6 7 11 13
9 8 6 5 3 3 2 3 4 3 5 1 8 5 4 4 3 4 4 4 5 5 6 7 8 5 4 5 6 5 5 3 7 9 7 10 12 9 14 14 14 15 15 13 11 12 11 12 9 10 12 12 13 13 12 13 12 11 11 12 11 10 8 9 10 10 9 9 9 8 8 8 9 8 8 8 8 7 7 7 9 9 6 7 6 5 5 6 6 5 5 6 5 5 6 6 7
8 6 5 5 4 2 2 4 2 4 4 4 4 6 7 5 5 5 3 3 3 5 7 8 8 3 0 6 4 2 7 5 7 6 7 9 7 13 13 14 14 12 12 11 12 11 11 13 9 11 12 12 13 12 12 11 11 10 11 11 11 10 8 8 9 9 10 9 9 9 8 8 8 8 7 7 7 7 7 6 8 7 5 6 6 6 7 5 5 5 3 4 5 6 6 6 6
7 5 5 3 4 2 3 3 3 2 3 6 4 3 3 3 6 5 3 2 2 3 8 8 4 2 5 4 3 2 5 5 5 6 7 8 12 12 14 14 13 12 11 12 11 11 13 16 11 13 12 13 12 12 12 12 10 9 10 10 10 10 9 7 9 9 9 9 9 9 9 8 8 7 7 7 7 7 7 7 8 6 7 5 4 5 5 5 5 5 4 4 5 4 3 4 5
5 4 2 4 2 4 4 2 4 6 5 5 4 1 2 1 5 7 3 2 1 3 5 7 1 7 5 4 3 4 8 1 4 5 7 9 13 14 14 13 12 11 11 11 10 10 13 15 15 14 13 13 13 12 12 12 10 9 9 9 9 10 8 8 8 8 8 9 9 9 11 8 6 6 7 7 7 7 7 7 7 7 6 7 6 6 5 5 6 6 4 3 4 5 3 3 4
3 3 4 4 4 3 3 6 6 4 7 4 2 2 3 1 2 4 5 5 3 4 4 5 3 6 4 4 5 7 5 3 2 6 3 12 13 13 13 12 12 12 12 11 10 10 14 16 15 15 14 13 13 12 12 11 10 9 8 9 9 9 9 7 8 8 8 8 9 8 9 9 8 8 7 7 7 8 7 8 8 8 8 7 7 7 6 6 6 5 5 4 4 4 3 4 6
3 5 2 5 2 3 5 6 6 5 7 5 4 5 3 4 3 3 3 2 4 4 4 4 4 5 6 2 1 3 4 4 4 5 11 12 13 13 12 12 13 12 11 11 10 10 15 15 15 14 14 13 13 13 12 11 10 9 9 8 9 9 8 7 7 8 7 7 8 8 8 8 9 9 9 8 8 8 8 8 8 8 8 7 7 9 8 6 5 6 5 5 5 5 6 3 5
6 5 4 4 2 1 4 7 7 4 7 4 7 5 3 1 2 2 4 3 4 3 4 4 1 6 5 4 3 4 5 4 5 7 11 13 13 13 9 11 12 12 11 11 10 11 12 14 14 14 13 12 12 13 12 11 10 9 9 9 9 9 8 7 7 7 7 7 7 7 7 8 10 10 10 10 10 9 9 8 8 8 8 8 8 8 5 4 5 5 5 6 6 6 6 4 4
4 3 2 4 4 4 3 6 6 6 6 6 5 5 4 3 2 2 4 5 4 5 4 2 1 4 5 2 3 5 4 4 7 9 12 13 13 11 11 11 12 13 11 10 10 10 10 14 13 13 13 12 11 11 12 11 9 9 9 9 8 8 8 6 6 6 6 7 7 7 8 9 9 9 9 9 9 9 9 8 8 7 7 7 6 6 6 6 5 5 5 6 6 7 5 3 4
5 4 1 4 5 4 6 5 6 4 5 5 6 6 4 3 3 3 3 4 3 2 3 1 4 3 3 3 1 3 3 4 8 11 13 13 12 11 10 10 11 11 11 12 10 10 10 11 13 12 11 12 11 10 10 10 10 9 8 8 8 8 7 6 5 5 6 6 6 7 7 8 8 8 8 10 12 12 12 12 10 8 6 6 6 6 6 6 5 5 6 6 7 6 6 3 5
4 4 3 5 7 7 6 5 6 5 5 3 7 5 4 4 2 3 4 5 3 4 2 3 2 2 2 2 3 5 5 6 7 10 13 12 10 11 10 8 10 10 11 11 11 10 10 10 10 11 11 11 11 9 9 9 10 9 8 8 7 7 6 6 4 5 5 5 6 6 6 6 6 7 11 14 12 12 11 10 11 12 9 8 7 5 5 4 5 6 5 5 5 4 3 3 4
6 5 5 3 7 5 3 2 6 3 2 5 5 5 4 4 3 2 4 4 3 4 3 2 2 3 2 2 4 4 6 7 9 11 11 10 10 9 8 9 9 9 9 10 10 9 10 9 9 9 10 11 10 9 9 8 9 9 9 8 6 6 6 5 5 3 4 4 5 5 5 4 4 7 11 9 9 9 8 9 8 9 9 9 8 9 4 4 4 4 4 4 4 3 2 2 3
5 5 6 5 2 4 7 4 4 3 5 6 5 5 3 3 3 2 2 3 3 1 2 2 2 1 3 2 4 6 7 9 10 12 10 11 9 9 9 9 10 9 10 9 9 9 9 9 8 9 10 9 9 9 9 8 8 8 8 8 7 6 5 5 4 3 3 4 3 4 3 3 3 5 9 8 9 7 7 8 8 7 8 8 7 7 6 3 4 4 4 4 4 4 3 3 3
5 4 5 3 7 3 7 6 7 5 6 3 4 3 4 6 2 2 2 2 3 2 1 1 2 4 3 5 5 6 9 10 10 11 10 10 10 9 9 8 9 9 9 10 9 9 8 8 8 8 9 8 8 7 6 7 7 6 6 6 6 6 4 4 3 3 2 3 3 2 3 1 3 2 9 7 7 6 7 8 7 6 5 5 5 5 6 4 3 4 4 3 3 3 3 2 3
4 5 5 4 7 6 7 4 3 2 6 4 5 3 4 5 3 2 3 3 4 3 1 2 1 2 3 3 2 8 11 11 10 9 11 11 9 9 9 8 9 9 8 8 9 8 7 7 7 7 7 7 7 5 5 6 7 6 5 5 5 4 3 4 2 1 2 2 3 3 3 4 3 1 6 7 6 5 7 8 4 3 4 4 3 3 4 5 2 1 2 2 2 3 1 4 2
4 4 4 7 7 8 8 6 6 6 5 6 5 3 1 4 3 3 1 3 3 4 3 1 1 2 2 1 3 9 10 10 10 11 12 10 9 8 8 7 7 7 6 9 8 7 7 8 7 6 7 7 6 5 5 4 7 6 5 4 3 3 3 2 2 2 4 4 2 1 3 3 1 1 1 7 13 3 1 11 3 4 2 2 2 1 2 3 3 2 1 1 1 2 1 1 6
4 3 6 7 7 8 7 7 7 3 3 6 4 3 2 4 4 4 4 4 3 4 3 3 2 1 1 1 5 9 10 12 12 12 11 11 10 9 8 7 7 7 7 7 8 8 8 8 8 6 6 7 5 4 3 3 4 5 3 4 3 4 5 3 3 1 1 1 3 2 2 1 1 1 1 1 3 11 4 6 10 8 6 4 2 3 4 2 2 1 2 1 1 1 2 4 6
4 3 4 8 7 7 4 5 6 3 6 5 5 2 1 5 3 4 4 4 5 4 3 4 4 3 4 5 8 10 11 12 13 11 12 12 10 11 9 8 7 7 7 7 7 9 7 7 7 7 6 6 6 4 3 4 4 3 4 3 3 1 1 1 2 0 1 1 2 3 3 2 1 2 1 4 4 5 6 11 10 7 6 6 8 7 5 2 1 3 4 3 2 4 5 0 4
2 5 6 7 6 6 5 5 5 4 6 6 5 5 2 4 1 4 3 4 4 5 5 6 6 6 7 8 10 11 11 11 11 11 11 10 9 10 9 9 9 8 8 7 8 8 8 6 7 7 6 6 5 4 3 4 3 4 3 3 2 2 2 2 1 2 1 1 2 3 3 1 3 1 0 4 8 5 6 11 10 8 10 10 9 4 4 4 4 4 4 4 7 4 1 1 1
3 4 6 5 3 2 7 5 5 5 4 5 4 4 4 4 2 3 2 6 3 2 4 3 4 6 8 9 11 11 11 11 10 10 10 10 9 7 8 8 7 7 7 6 7 7 8 7 7 7 6 6 6 4 4 4 3 3 3 2 2 2 2 2 2 1 2 2 3 3 4 3 3 3 2 2 3 2 3 2 6 8 8 7 9 3 3 3 5 3 3 5 1 1 1 1 0
2 7 4 3 2 5 5 6 6 6 4 4 4 3 4 4 3 1 1 6 4 2 1 2 1 5 8 10 12 11 11 11 11 10 10 10 10 8 7 6 5 6 6 6 7 7 8 8 7 6 7 7 6 5 4 3 3 3 3 2 2 2 2 2 2 2 2 2 3 3 3 4 4 3 2 2 2 2 4 2 2 2 2 2 10 5 3 6 5 3 2 2 1 1 1 0 1
1 5 3 2 2 5 5 5 5 4 5 4 3 4 3 2 3 2 2 3 4 2 1 1 1 3 6 8 10 12 12 12 11 10 9 9 9 9 7 7 6 7 5 5 6 6 7 8 8 6 6 7 7 6 4 3 4 3 3 2 2 2 2 3 3 2 2 1 3 3 4 4 4 4 3 2 3 3 3 3 3 2 2 1 1 0 6 4 2 4 4 2 1 1 1 1 1
5 6 3 6 4 7 7 6 4 3 3 5 4 3 2 2 3 2 3 4 4 4 3 2 2 3 6 8 10 11 9 10 11 9 8 10 10 9 7 7 6 5 5 6 6 6 6 7 7 8 6 6 6 5 4 4 3 4 3 2 3 1 2 4 3 2 2 2 2 3 4 4 5 4 4 3 4 4 3 4 4 4 3 2 2 1 2 2 6 5 3 4 3 3 2 2 1
3 5 5 6 6 7 7 5 5 5 5 4 5 4 5 3 3 3 4 3 2 4 3 4 4 5 5 6 9 7 9 8 9 8 7 7 8 8 7 5 5 4 5 5 5 6 7 6 8 8 7 7 6 6 6 4 4 4 4 3 3 2 3 3 3 3 4 3 2 3 4 5 4 4 4 4 3 4 4 4 4 4 3 3 1 1 1 1 1 2 2 3 2 2 2 2 2
1 6 6 6 6 7 6 6 4 4 4 4 5 6 5 5 3 3 3 3 2 2 4 4 5 6 6 5 7 6 8 11 5 7 6 4 4 8 8 6 5 6 5 5 5 5 5 6 7 8 8 7 6 6 5 4 4 4 4 3 3 3 4 3 3 4 3 3 3 2 3 5 5 5 4 4 5 4 5 5 5 4 4 4 3 2 2 0 1 0 2 3 3 3 2 2 2
5 7 6 7 7 7 5 4 5 3 4 2 2 5 5 5 4 4 3 3 2 2 2 4 2 4 6 6 7 4 4 8 10 6 4 5 5 6 7 6 5 5 4 7 6 6 6 7 7 7 7 5 5 5 4 4 5 4 4 4 4 4 3 3 3 4 3 4 3 1 3 4 5 5 5 4 4 4 5 4 5 4 5 4 3 4 2 1 1 1 0 2 2 2 3 2 3
7 8 8 7 6 5 5 4 6 5 4 2 2 3 1 4 4 4 4 4 2 1 3 2 2 1 3 4 8 9 5 6 8 7 7 6 7 7 8 7 7 5 6 6 6 6 7 8 7 7 7 7 6 7 6 6 5 5 4 4 4 4 3 4 4 3 3 3 3 3 3 4 4 5 5 5 6 6 6 5 5 5 5 4 4 4 2 0 1 1 1 1 1 1 2 3 3
9 8 5 7 8 6 5 6 6 3 3 3 1 2 5 5 4 5 4 3 2 2 2 2 2 2 3 4 3 8 8 8 8 9 9 6 7 6 8 7 8 6 6 6 5 6 7 7 6 7 7 7 8 8 7 6 5 5 5 4 4 4 4 4 4 3 3 3 3 4 3 3 3 5 4 5 6 6 6 6 6 6 5 4 4 5 4 2 3 2 3 2 3 3 3 3 3
6 5 2 6 6 5 8 4 6 4 5 3 2 2 5 4 5 6 5 4 4 3 2 2 1 1 3 4 4 4 8 7 9 9 10 8 8 8 7 7 8 8 6 6 7 8 6 5 5 5 5 6 7 6 5 5 5 4 4 4 4 4 3 3 3 3 3 3 3 3 4 4 4 4 5 6 6 7 7 6 7 6 6 5 4 4 4 3 3 3 2 3 3 3 3 4 4
4 2 6 3 3 4 11 8 8 6 6 4 5 5 4 5 5 6 5 4 3 2 1 1 2 1 2 2 3 4 6 7 8 9 10 10 9 9 9 7 8 7 6 7 9 8 7 5 5 4 5 7 7 6 6 6 5 4 3 3 3 3 3 2 1 2 3 3 3 3 4 3 4 6 6 6 7 7 7 7 6 4 8 6 5 4 5 4 4 4 3 4 3 3 4 3 4
3 3 5 3 3 5 9 8 11 7 7 6 4 5 5 4 5 6 6 5 4 3 2 1 1 1 1 2 3 3 4 5 7 8 8 9 9 8 10 10 9 8 8 7 7 8 8 8 6 6 6 7 7 7 7 5 4 5 4 3 3 2 1 1 2 3 3 3 3 3 3 2 3 5 5 5 7 7 7 6 5 7 8 6 6 6 5 6 5 5 4 5 4 4 3 5 4
5 5 4 3 4 5 8 10 9 8 7 9 7 4 0 6 6 6 4 5 4 3 2 2 2 2 2 2 2 3 4 5 6 7 8 8 8 9 9 10 11 11 9 8 8 8 8 8 7 7 7 8 7 7 6 5 5 5 4 3 1 0 1 2 3 3 4 4 4 4 3 3 4 6 6 5 4 6 6 5 5 6 6 8 8 7 6 6 6 6 4 5 5 4 5 6 5
3 2 3 3 5 6 3 8 9 9 8 7 9 7 2 4 7 7 6 5 5 4 3 3 2 1 1 2 2 2 2 4 6 7 8 9 7 9 8 9 11 11 11 9 8 8 8 8 7 7 7 7 7 6 6 6 5 4 4 3 2 3 4 4 3 3 4 4 5 4 2 2 3 4 4 4 4 5 5 6 7 7 6 6 9 8 10 8 7 7 7 5 6 5 5 5 6
3 3 4 3 5 1 4 2 9 10 11 8 6 8 4 5 7 8 8 7 6 4 3 2 2 2 2 2 2 2 3 4 4 5 6 8 8 8 8 9 10 11 9 10 8 7 7 6 5 5 5 7 7 6 5 5 5 4 4 4 5 5 4 4 4 5 4 4 3 2 1 2 3 4 4 4 5 7 7 8 8 7 3 5 7 9 11 10 9 9 9 7 5 6 5 5 5
5 6 6 6 6 6 5 5 8 9 9 8 8 6 6 7 7 8 9 9 7 5 5 3 3 3 3 3 2 2 1 1 2 4 6 5 6 8 8 8 9 9 9 8 9 8 7 6 5 4 6 6 6 7 7 5 5 5 5 5 5 4 4 3 3 3 3 3 4 5 5 4 5 5 6 7 8 7 6 7 9 8 7 7 7 7 8 8 10 9 10 10 8 6 6 6 5
7 8 6 7 5 5 5 1 5 7 6 8 8 8 6 7 9 9 9 10 8 7 6 5 4 3 4 3 2 2 2 1 2 3 4 5 5 5 7 7 8 9 9 9 8 8 8 6 6 6 4 5 5 5 5 5 5 5 5 6 5 3 3 3 4 4 5 5 6 5 5 5 5 7 7 7 8 8 7 6 7 7 7 7 7 7 8 10 7 9 8 5 7 8 7 6 6
7 9 8 7 7 5 4 1 6 6 6 3 7 8 8 8 8 9 10 10 11 10 8 7 6 5 3 4 2 2 2 3 3 4 4 4 5 6 7 8 9 10 10 9 10 9 7 7 6 4 4 5 5 4 4 4 5 4 2 2 2 2 3 3 3 3 4 4 5 6 6 5 7 7 6 7 7 7 8 8 8 7 7 7 7 7 9 8 8 6 10 7 7 7 7 7 5
7 7 7 9 2 6 3 2 6 5 5 3 5 7 7 9 9 9 11 11 10 10 9 8 7 6 5 4 4 3 3 3 4 4 5 5 6 6 6 7 8 8 8 8 8 7 6 5 5 5 4 5 3 4 4 4 4 3 3 4 3 2 2 3 4 4 4 6 6 7 7 6 6 6 7 6 6 7 8 8 7 7 7 6 7 8 8 10 7 8 4 4 7 6 6 5 5
8 8 7 7 7 8 3 7 4 7 5 4 4 7 5 7 8 9 10 10 9 9 9 9 7 7 6 5 4 4 4 4 5 5 5 6 7 7 6 6 7 7 7 7 7 7 6 5 5 5 4 4 5 4 3 3 3 3 2 2 2 1 0 2 3 4 5 6 7 6 7 6 6 6 6 6 6 7 6 6 6 6 6 6 6 7 8 8 8 8 7 8 8 8 6 7 8
8 8 8 9 8 9 7 3 3 4 7 5 7 8 5 7 9 9 10 10 8 8 9 8 7 6 6 4 4 4 4 5 5 6 6 5 6 7 7 7 7 7 7 7 7 7 5 7 6 6 4 4 3 4 3 3 4 4 3 3 3 3 3 3 4 5 4 4 4 4 4 4 5 6 6 6 5 5 5 6 6 7 7 6 6 6 7 7 7 7 7 5 7 6 7 6 6
9 10 9 8 10 10 6 1 4 6 6 6 4 6 4 6 10 10 10 10 10 10 11 11 10 8 7 8 7 6 5 4 5 6 6 6 6 7 6 7 6 6 6 6 6 7 6 5 6 5 4 4 4 4 4 3 4 4 4 3 3 1 2 3 3 2 2 3 3 3 4 4 5 6 5 5 5 6 5 6 6 6 7 6 5 6 7 6 6 8 6 5 7 6 7 7 7
10 3 3 6 9 8 8 5 5 6 4 5 5 7 4 7 8 11 11 11 12 11 12 12 11 9 9 8 8 8 7 6 5 5 6 6 7 8 7 6 6 6 6 6 6 6 6 6 6 6 4 3 4 4 4 3 3 3 3 1 0 1 2 1 1 2 3 2 3 1 1 5 5 6 6 6 5 5 5 5 5 6 6 6 5 6 7 7 7 6 4 4 6 5 5 7 8
9 6 4 4 7 6 6 6 6 7 3 2 5 5 7 3 8 10 12 12 13 13 13 13 12 12 11 10 9 9 9 8 7 6 6 5 6 6 7 7 6 6 7 7 7 7 6 6 6 7 5 4 4 5 5 4 4 3 3 2 2 2 1 2 2 1 1 0 1 1 2 1 1 1 1 2 3 4 4 5 5 6 6 6 5 6 7 7 6 4 4 5 4 3 6 6 6
2 4 3 5 4 6 6 6 6 4 5 4 4 3 6 4 7 7 9 11 12 14 14 14 14 14 13 11 10 10 9 9 8 8 7 7 6 5 6 6 5 6 7 7 7 6 7 6 5 6 6 5 5 6 6 6 5 5 5 5 4 2 1 2 2 2 1 1 1 0 1 2 2 2 2 3 3 4 5 5 5 6 6 6 6 6 6 6 6 6 4 5 6 6 5 5 6
2 1 2 4 4 5 5 6 5 4 5 5 1 3 6 6 9 4 5 7 10 12 14 15 15 15 14 12 12 11 10 9 9 8 8 7 6 6 5 5 6 6 6 6 7 6 7 7 6 7 7 5 6 7 6 6 6 5 4 4 5 4 3 1 0 1 0 1 1 1 2 2 3 3 4 3 3 4 5 5 6 6 7 6 6 6 6 6 5 6 7 7 6 7 7 8 8
3 3 5 5 5 4 3 5 5 4 6 2 2 2 6 7 2 4 6 5 7 8 10 11 14 15 14 13 13 11 10 10 8 8 7 7 6 6 6 7 6 6 5 6 6 6 6 6 8 8 8 7 7 7 7 7 6 4 4 4 4 3 3 3 2 1 1 1 2 2 1 1 2 3 3 2 4 4 4 4 5 5 5 4 5 6 5 6 5 6 6 6 6 7 6 7 8
5 6 7 4 4 3 4 4 4 6 4 3 2 2 4 8 4 3 4 4 5 8 13 15 16 17 16 15 13 13 12 10 9 8 8 7 7 6 6 7 6 6 6 6 6 7 7 7 7 8 7 7 6 6 6 6 5 4 3 3 3 3 2 2 1 1 1 1 2 2 1 2 2 3 3 3 4 3 2 4 3 4 4 4 4 5 5 5 4 5 4 4 5 7 8 7 7
9 8 7 8 5 4 6 4 6 5 5 3 1 1 5 6 1 6 1 3 5 4 8 14 17 18 17 16 15 13 12 11 10 10 9 8 7 7 7 7 6 6 5 5 5 5 6 6 6 7 6 6 6 5 5 5 4 4 4 3 3 2 2 1 1 2 1 2 2 2 2 2 2 3 4 4 2 3 4 4 5 4 4 4 4 5 4 4 5 5 5 5 5 6 6 8 8
10 9 7 9 8 7 9 6 4 6 5 2 2 2 5 7 4 3 2 4 2 4 5 9 15 18 18 16 15 14 12 12 11 10 9 9 8 7 7 7 6 5 5 5 5 5 5 5 6 6 6 6 5 5 5 5 4 4 4 3 2 2 1 2 2 3 2 2 2 3 3 3 2 5 3 3 3 4 5 4 3 6 4 5 5 6 6 6 5 6 6 6 6 5 6 7 8
11 9 8 7 8 6 8 4 5 5 3 4 4 6 2 7 4 1 6 5 3 4 6 8 12 16 16 15 15 15 14 12 11 11 10 10 9 9 8 7 6 6 7 6 5 5 5 5 6 6 7 6 6 6 5 6 5 5 4 3 3 2 2 2 2 2 2 3 3 3 3 4 5 2 3 2 3 5 6 5 5 6 6 5 6 7 7 6 6 6 6 7 6 6 6 7 7
8 7 6 7 9 5 9 5 6 5 3 4 6 3 4 4 5 3 3 5 5 7 8 9 13 15 17 15 15 15 13 13 12 12 11 10 10 9 8 8 7 7 8 7 7 7 7 7 7 7 7 7 7 6 6 6 5 5 4 3 2 2 2 2 2 2 3 3 3 4 3 4 4 3 3 3 5 4 5 6 6 7 6 6 7 7 7 7 7 7 7 7 8 6 7 9 8
7 6 9 7 2 6 6 5 2 5 6 6 1 4 3 7 2 4 3 4 5 8 10 11 14 16 16 15 15 14 13 13 12 12 11 11 10 9 9 9 8 8 8 8 8 8 8 8 8 8 7 7 7 6 6 5 5 5 4 3 2 2 3 3 2 3 3 2 3 4 4 4 4 4 5 5 4 4 6 6 7 8 7 6 7 8 8 8 8 8 8 8 8 8 8 8 8
2 8 7 3 2 7 6 7 1 6 7 2 0 6 4 1 2 4 5 7 7 9 11 11 14 16 16 13 13 13 14 14 13 13 12 12 11 10 9 8 9 8 9 10 9 8 8 7 8 8 8 7 7 6 6 5 5 4 4 2 2 2 2 2 2 3 3 4 4 4 4 4 5 4 3 5 5 6 5 5 6 6 7 7 7 8 8 8 8 8 9 9 8 8 8 8 8
10 6 5 8 6 8 6 6 8 7 7 4 4 3 5 7 2 6 8 8 10 11 12 13 15 16 16 15 15 14 15 14 14 14 12 12 11 10 9 9 9 9 9 9 10 9 8 7 7 7 7 7 6 5 5 5 5 3 2 2 2 2 2 2 2 3 3 4 4 4 4 3 6 4 4 3 5 6 5 5 6 7 7 7 7 7 7 7 7 8 8 9 9 9 8 8 8
10 7 8 6 7 6 6 6 7 4 8 5 4 3 3 6 2 3 2 8 11 13 13 14 17 17 16 15 15 15 15 14 14 13 12 12 12 11 11 10 10 10 10 10 10 9 9 8 8 7 6 6 6 6 5 5 5 3 2 2 2 2 2 3 3 4 4 4 3 3 4 5 3 4 3 3 5 5 6 7 7 7 7 8 7 7 6 7 7 7 8 8 8 8 8 9 9
11 10 11 8 7 4 7 2 7 6 7 6 4 7 1 4 8 3 3 6 11 13 13 12 14 16 16 16 16 16 15 14 14 14 13 13 12 12 11 11 10 10 9 9 9 10 9 8 8 8 8 7 7 6 6 5 4 3 3 3 3 3 4 4 4 4 4 4 4 5 4 2 1 5 3 5 5 6 6 6 7 7 8 7 7 8 7 7 7 8 8 8 9 9 9 9 9
12 11 11 9 9 8 8 8 6 7 6 6 5 5 6 5 3 2 5 4 9 13 13 13 15 16 16 15 15 15 15 15 15 14 14 13 12 12 12 11 10 10 10 10 10 10 10 10 8 8 7 6 6 6 5 5 4 4 4 4 3 2 3 3 4 4 5 5 4 3 3 3 5 4 4 5 6 6 5 6 7 7 8 8 8 8 8 8 8 8 9 7 8 9 9 10 9
Wind_Direction
174 186 187 188 241 317 266 196 253 182 232 223 208 208 69 350 20 184 92 147 143 93 115 150 138 151 145 132 67 56 31 86 17 354 63 62 151 144 141 136 137 136 140 141 137 142 144 141 145 138 134 131 125 122 119 117 117 117 115 109 101 93 87 86 85 87 87 86 87 88 88 88 86 85 84 82 85 89 94 100 105 107 106 124 122 130 145 145 147 137 116 146 155 156 162 178 203
173 170 171 177 158 267 179 308 252 218 204 223 164 54 50 76 118 51 145 117 52 124 129 153 129 74 39 76 111 161 80 59 50 77 88 98 133 134 131 141 141 137 139 139 144 146 143 135 148 140 136 132 126 123 122 121 120 121 118 111 105 98 94 90 86 88 89 86 86 88 90 88 86 85 81 82 83 84 84 86 99 104 110 108 117 115 120 127 122 128 146 142 156 161 158 169 170
159 167 165 175 153 236 302 184 267 336 266 223 74 76 242 110 89 69 55 66 92 117 137 148 134 151 140 161 139 355 81 75 81 77 86 132 134 138 142 143 139 135 138 140 148 148 143 136 148 142 137 133 128 128 130 127 123 124 120 116 110 104 100 101 103 96 92 88 85 85 85 84 88 89 87 84 82 81 77 74 62 63 72 87 79 98 110 110 110 119 130 134 141 150 158 158 164
158 171 179 190 185 203 232 223 317 327 319 53 138 34 31 10 106 79 59 60 119 133 147 144 164 20 160 156 73 154 82 100 43 73 112 160 131 141 144 138 136 136 140 143 145 148 144 133 152 144 138 135 133 133 131 129 125 126 121 118 112 109 106 106 100 95 87 84 79 76 72 83 87 82 85 86 84 85 82 79 91 101 93 68 96 81 59 54 88 78 84 118 135 135 145 160 163
161 161 189 210 268 205 269 340 339 332 15 0 32 62 342 306 101 104 93 106 125 151 157 159 140 123 23 66 35 58 65 94 98 47 107 102 127 136 144 141 141 138 140 141 145 144 138 135 149 141 139 138 137 136 136 131 126 125 119 115 114 109 107 102 97 94 88 84 86 85 85 75 67 78 82 81 82 77 72 70 81 69 76 95 83 86 100 108 88 115 142 157 135 121 131 135 122
142 157 147 224 276 11 243 206 57 53 44 358 74 76 228 299 96 97 71 57 115 134 142 163 185 158 165 53 25 51 26 46 21 103 109 123 136 142 143 147 138 140 140 138 142 142 142 135 145 142 140 138 138 138 139 129 130 125 120 116 114 107 102 104 94 85 80 76 75 77 83 75 79 78 66 69 72 67 63 63 58 78 68 59 52 61 64 63 95 113 124 107 107 125 134 130 127
165 165 190 211 246 233 6 49 57 59 63 26 40 138 201 188 71 99 112 120 73 117 159 155 221 143 159 125 120 60 30 69 282 98 132 131 133 147 146 146 140 136 141 139 142 140 137 140 142 143 141 139 140 140 139 134 136 131 126 121 113 107 101 101 98 87 78 73 68 65 67 87 81 68 72 62 60 59 57 56 56 51 58 59 67 67 63 51 43 50 61 72 78 80 75 87 76
89 256 169 273 91 228 49 68 65 36 69 52 123 129 163 188 169 138 118 120 128 157 147 142 187 238 63 298 187 63 60 35 34 100 112 141 141 144 153 143 140 139 141 141 139 135 134 144 143 142 140 142 143 142 139 140 139 135 133 123 115 105 101 98 99 90 78 71 70 64 64 63 68 76 67 65 63 61 57 51 50 49 51 57 61 64 51 39 37 44 50 64 71 90 92 75 101
178 246 258 257 247 119 53 50 68 65 84 67 83 60 26 107 175 132 121 99 103 115 124 159 212 233 111 143 70 49 70 81 89 122 132 138 147 150 150 151 144 139 142 143 138 138 142 144 146 143 140 145 146 143 140 139 139 136 134 123 114 104 98 97 97 92 79 75 63 56 66 63 56 54 54 54 51 49 51 50 48 49 40 45 51 68 74 54 46 48 48 40 47 60 75 62 80
227 244 299 304 298 44 36 69 64 58 56 59 55 78 84 123 152 325 117 121 99 135 88 305 232 277 108 133 118 155 83 113 121 137 148 141 147 153 153 150 145 142 143 141 140 143 142 145 146 145 146 146 145 144 139 137 138 138 132 123 114 105 96 96 91 87 79 72 63 54 52 53 51 48 49 53 57 50 40 39 48 47 45 43 52 60 66 53 53 55 49 47 44 52 51 36 31
284 193 231 287 28 34 33 62 72 95 81 72 87 89 84 89 161 122 50 109 137 118 150 283 166 173 190 91 30 59 104 129 153 144 151 149 150 157 148 152 142 144 146 140 142 145 146 149 145 148 150 147 146 144 138 138 138 137 131 121 113 105 95 88 90 83 79 69 64 58 53 53 51 53 54 50 51 39 35 23 19 32 43 36 45 54 56 67 46 56 50 45 47 45 39 45 33
285 346 247 332 34 5 33 40 74 84 91 116 95 93 96 91 142 136 125 131 146 137 125 294 130 173 164 182 112 127 141 146 149 145 153 147 155 151 148 150 146 147 149 140 145 143 152 147 154 150 154 152 147 146 142 141 140 138 131 121 114 104 94 86 81 78 74 70 65 56 49 50 52 54 53 53 51 51 38 30 24 24 19 20 23 44 68 63 59 53 40 41 56 45 54 50 77
305 327 331 354 19 18 14 31 55 73 121 95 86 81 104 104 63 104 98 113 141 155 135 20 26 277 199 166 76 133 148 137 155 148 150 151 152 148 155 143 145 146 146 145 146 142 152 153 153 161 155 157 152 151 148 147 145 140 135 123 118 105 95 82 73 72 64 60 61 57 51 40 45 62 67 64 70 58 52 46 35 33 21 38 12 4 43 88 72 57 52 38 35 50 34 55 76
303 347 309 31 185 37 19 53 93 78 82 85 78 84 69 74 70 47 146 101 125 217 45 323 242 291 110 112 163 161 132 141 151 151 157 151 149 154 156 144 145 150 147 155 149 150 153 157 156 159 157 170 156 159 154 152 148 145 136 130 121 115 100 83 72 68 55 52 48 47 45 34 16 67 97 89 80 70 67 63 44 36 31 31 27 25 28 70 50 49 47 33 46 55 67 82 58
305 339 293 325 37 32 26 19 14 40 86 89 72 91 111 70 85 103 33 151 95 40 90 241 311 241 97 218 139 164 141 146 151 156 146 147 149 155 150 149 148 147 155 163 154 153 156 159 159 159 165 172 164 166 160 152 151 146 138 131 128 118 105 91 91 51 32 38 24 23 358 349 341 34 112 106 94 79 76 70 40 18 36 35 33 25 43 64 45 25 14 16 45 45 50 64 73
305 294 291 356 53 5 40 26 16 78 81 73 89 88 105 105 103 136 66 12 114 101 272 133 167 358 336 238 62 132 134 146 150 151 152 147 151 156 150 154 146 151 153 166 160 158 158 166 166 163 168 170 171 167 156 156 148 150 145 137 127 117 109 94 90 58 16 12 15 329 326 294 245 183 109 102 64 98 94 74 13 360 33 15 30 8 60 84 87 50 29 35 37 20 44 109 107
283 253 276 35 48 22 27 21 348 55 81 86 112 140 134 98 75 87 156 165 140 123 117 18 32 279 349 360 138 131 133 139 149 158 148 152 158 157 160 160 151 149 158 170 171 160 163 172 170 165 167 175 171 162 161 154 134 158 161 151 139 121 108 97 62 208 208 189 227 180 257 258 267 19 165 130 143 17 171 129 203 185 86 294 85 181 80 114 131 156 156 84 329 11 35 132 119
275 312 346 51 25 34 14 21 28 28 103 110 133 118 170 132 143 115 166 116 104 156 150 139 181 102 356 108 142 136 142 148 157 160 163 161 170 161 168 161 166 156 166 163 177 172 171 174 175 176 167 173 169 172 159 156 144 187 181 166 189 167 165 192 199 349 68 319 158 215 289 288 333 354 46 355 107 142 177 179 176 186 171 181 148 182 151 157 133 201 209 221 162 203 285 229 103
287 335 16 41 25 54 15 22 42 26 88 120 115 127 68 89 170 141 224 134 165 164 182 179 176 154 123 147 139 155 155 158 160 166 171 169 173 167 171 163 175 158 165 165 172 179 179 176 184 182 174 174 177 178 167 165 161 178 179 176 156 179 177 191 289 172 317 12 334 316 287 271 353 329 346 4 330 307 198 180 188 192 185 202 196 175 148 162 199 224 224 203 204 206 223 277 152
32 299 34 47 52 79 56 20 59 57 117 125 141 121 114 120 119 144 240 152 190 203 188 193 209 178 160 154 164 159 163 160 162 168 175 177 174 166 169 174 174 170 169 174 167 178 183 186 185 189 176 178 189 187 192 182 177 181 189 179 185 172 192 209 221 299 315 312 311 304 280 325 273 246 262 222 236 234 179 189 197 195 192 203 194 168 140 185 209 229 229 214 210 210 241 147 88
82 275 31 45 65 68 62 62 72 103 121 114 115 122 119 102 109 217 133 185 200 189 255 253 204 183 158 164 166 164 167 161 167 170 178 174 179 175 175 176 181 171 172 177 168 177 186 184 188 187 185 187 191 189 195 203 167 202 187 187 198 200 218 227 235 219 234 254 271 263 271 298 301 291 276 285 300 315 306 287 186 162 194 191 219 132 188 197 203 219 197 212 265 248 232 110 278
202 34 44 45 103 76 73 70 85 104 103 122 119 131 84 110 140 104 267 308 126 67 213 238 279 182 170 168 172 171 166 168 171 176 176 178 178 186 178 175 170 177 165 181 175 176 188 185 192 190 189 190 190 203 204 175 190 203 197 199 217 225 235 237 262 240 235 219 256 264 295 278 263 261 256 268 279 281 283 300 290 329 346 146 167 170 218 182 193 228 205 206 201 254 279 322 113
218 98 84 73 24 72 97 96 97 132 137 111 114 79 122 143 85 48 21 40 58 76 87 227 214 185 171 171 181 175 170 171 168 173 173 182 188 187 189 181 176 183 169 188 175 181 188 192 184 187 196 189 193 199 200 204 203 212 207 198 236 233 253 267 250 257 243 286 276 265 270 277 278 285 277 277 267 273 288 291 312 307 290 306 51 153 163 150 250 199 201 173 207 217 196 180 164
304 93 100 82 87 95 96 95 128 110 106 98 93 150 110 166 116 45 76 48 49 57 72 76 109 141 159 191 184 187 170 173 167 165 180 186 188 189 196 195 183 177 185 179 186 182 185 195 185 194 185 200 195 195 206 210 211 218 217 189 209 234 270 253 267 271 307 259 254 294 292 277 281 280 283 271 267 277 290 303 303 300 309 321 74 353 343 182 178 188 165 174 186 194 194 181 171
124 114 122 100 99 104 100 99 103 105 98 115 143 121 87 52 68 188 75 78 68 81 78 90 107 143 182 185 196 173 184 170 160 168 182 196 189 184 196 203 203 185 196 196 201 200 187 192 188 200 189 196 199 202 206 206 213 217 219 214 230 192 238 260 274 281 268 264 254 261 257 279 278 278 287 286 300 293 298 287 294 302 306 322 313 101 25 346 235 154 166 174 176 202 188 198 162
74 107 130 127 115 110 107 118 120 121 114 156 156 118 122 107 180 101 73 81 86 94 115 118 135 160 159 193 224 171 208 172 147 172 173 164 172 186 185 194 199 203 197 210 210 212 205 199 201 198 200 193 199 204 202 192 198 217 216 225 226 210 234 244 270 266 255 259 256 242 288 295 295 295 290 302 294 288 285 292 285 283 299 299 296 336 89 321 335 124 180 183 178 181 211 176 203
115 132 128 126 122 127 130 133 118 123 121 169 174 151 137 157 214 114 132 114 140 145 115 115 138 139 161 172 167 218 226 148 175 184 168 156 176 198 190 184 185 201 196 207 210 204 205 216 205 208 202 188 201 213 196 202 203 212 217 221 221 225 232 234 243 252 270 275 283 276 275 268 280 278 282 290 285 279 277 284 290 293 291 294 316 299 102 30 318 303 285 213 173 189 194 165 201
128 124 123 124 129 124 126 132 135 162 139 219 240 123 193 159 200 66 114 132 156 194 126 129 146 146 142 158 171 139 207 176 170 190 176 175 189 184 195 192 195 202 206 214 203 201 206 210 207 199 213 190 204 208 201 207 210 207 213 224 222 222 223 237 235 243 249 263 280 287 274 285 297 294 295 290 288 295 292 286 286 286 293 296 293 292 299 344 264 236 166 240 238 216 218 192 194
143 152 136 131 151 136 162 164 148 222 129 181 313 229 194 195 123 136 126 132 181 197 166 168 180 150 141 151 169 159 176 187 183 203 202 194 199 195 185 193 185 189 203 206 210 212 211 210 212 205 208 193 205 215 206 215 208 211 213 219 224 215 224 224 227 235 245 244 237 249 257 262 267 279 291 292 292 283 285 291 283 287 283 295 285 296 311 262 245 194 193 194 212 216 220 213 208
176 215 153 165 186 170 165 154 158 201 105 187 171 227 113 126 128 143 145 168 185 203 208 185 143 148 139 154 174 168 156 192 199 204 210 208 202 200 201 181 187 187 181 186 205 216 214 205 205 213 210 209 208 218 218 211 213 215 219 216 214 221 234 231 236 245 271 271 280 281 286 287 294 301 297 293 295 293 291 286 295 303 305 270 279 271 265 220 250 261 229 220 206 232 233 225 217
208 137 241 297 244 109 164 177 168 195 129 183 214 322 121 130 149 140 154 183 212 237 188 198 152 163 158 161 170 191 180 182 193 203 209 210 208 200 204 194 196 199 193 194 200 205 215 202 201 203 204 210 210 215 219 219 214 225 219 230 220 236 237 244 272 286 262 277 299 297 306 318 300 298 298 296 291 291 286 282 286 277 266 295 285 267 250 256 256 251 240 251 245 253 245 231 244
171 190 219 167 329 155 169 182 174 192 167 199 278 251 74 140 151 158 169 177 198 250 233 202 181 173 163 199 191 198 184 186 189 201 202 206 208 208 202 201 203 194 204 204 204 208 212 212 200 201 191 204 206 210 212 218 216 225 228 229 239 205 251 308 307 295 287 280 269 270 257 265 267 267 282 295 290 286 285 295 316 308 305 302 278 280 272 270 256 253 253 243 251 259 247 252 234
195 283 355 18 342 111 181 186 186 210 171 200 214 292 60 162 163 156 179 184 190 227 239 249 206 189 201 198 196 198 178 184 182 193 203 212 210 212 206 202 204 204 204 209 208 209 215 212 206 209 199 199 209 208 204 194 216 229 235 243 267 303 256 242 253 267 277 269 271 276 289 301 297 298 287 271 283 283 294 299 291 294 313 303 292 275 273 265 267 258 237 250 271 263 257 249 244
185 170 322 346 335 343 34 145 189 189 215 197 213 246 305 77 159 169 184 199 188 208 222 210 227 217 209 207 212 187 188 188 196 189 196 205 211 207 207 203 202 203 204 210 212 215 218 214 210 212 211 206 204 205 195 195 201 216 214 216 212 233 233 252 250 259 269 282 279 274 280 273 275 269 267 263 263 275 285 278 278 280 289 295 291 308 269 266 265 257 260 237 245 249 251 258 246
349 339 317 352 342 256 329 276 160 199 200 234 202 233 236 176 166 177 188 190 198 208 214 210 247 218 206 210 214 191 194 217 175 175 185 191 196 205 205 207 203 200 205 207 212 216 217 221 221 215 233 222 203 193 179 195 192 200 223 210 215 219 238 244 253 250 243 243 246 247 245 255 263 266 268 267 262 272 273 275 277 276 255 270 277 282 289 277 262 265 258 246 233 247 255 250 261
318 326 317 319 318 335 356 65 148 199 196 222 219 235 213 197 193 181 181 189 198 197 193 225 217 236 209 213 196 207 180 168 138 138 163 169 185 196 203 203 201 197 195 203 213 214 213 204 205 222 214 219 198 200 209 204 201 198 208 211 211 217 218 217 234 235 234 232 241 237 232 237 243 253 259 264 269 268 268 269 271 274 274 266 261 261 266 275 278 255 244 253 249 225 228 246 237
305 281 290 298 315 316 101 151 155 195 228 228 228 231 233 210 203 192 186 183 197 194 204 202 212 208 233 221 182 189 175 125 74 115 134 146 158 187 203 205 204 195 196 198 198 206 207 203 203 208 202 209 218 205 201 205 202 196 212 222 227 206 214 231 237 240 231 241 242 244 239 242 249 256 258 261 266 267 267 271 269 267 263 263 260 252 260 275 292 300 292 244 248 247 240 217 228
286 295 291 297 309 330 29 328 154 181 240 238 212 229 233 217 208 198 186 190 195 196 198 204 196 205 204 220 215 189 151 112 136 138 139 143 155 168 188 199 201 197 189 191 199 201 200 198 198 192 180 201 218 213 196 202 214 218 222 266 243 207 210 224 240 239 250 250 250 259 255 256 262 263 255 255 260 263 263 263 261 260 261 262 264 262 271 259 257 257 255 250 229 237 242 230 203
272 279 298 298 309 330 149 126 152 168 222 256 187 236 232 222 209 197 193 197 196 193 196 196 197 189 203 203 212 179 167 156 150 133 135 144 142 154 183 182 186 190 181 190 200 194 183 186 187 183 188 186 193 221 215 218 213 219 208 215 211 207 226 261 269 266 261 262 257 255 259 254 256 256 256 255 256 255 256 260 265 266 267 261 264 262 248 253 246 254 272 284 291 246 239 238 209
267 273 273 281 341 317 345 135 174 174 245 319 197 253 246 211 207 200 199 206 199 188 188 190 197 194 197 200 192 189 176 164 162 149 145 146 144 152 165 183 182 184 176 180 186 191 189 190 188 193 191 190 184 193 202 189 166 164 136 160 143 261 164 202 241 253 257 263 261 259 255 246 234 241 238 236 233 240 250 260 268 270 267 267 269 268 266 258 247 235 205 225 216 256 219 228 222
254 255 263 281 310 328 321 13 173 215 230 253 265 253 263 213 188 198 192 204 195 185 179 189 193 197 190 192 191 200 185 177 162 158 148 145 154 149 158 170 175 186 184 182 184 186 196 199 190 197 193 190 178 171 167 153 148 141 148 159 168 176 209 239 261 257 246 249 252 238 235 235 245 254 254 249 251 251 247 259 261 268 276 270 263 262 261 261 258 254 245 244 255 248 257 238 219
264 256 265 292 306 299 308 218 247 246 210 190 250 286 141 176 194 195 176 184 195 185 188 189 187 194 185 189 193 189 192 188 177 161 158 152 151 143 148 156 165 165 176 169 178 180 188 188 180 186 181 179 181 171 164 172 184 175 209 225 219 198 233 229 226 215 209 219 238 234 231 243 256 260 253 255 260 263 254 258 263 267 273 269 254 252 260 260 252 258 251 245 250 232 260 275 262
264 346 59 313 304 300 294 262 259 273 309 125 252 307 322 179 192 181 174 189 189 183 193 187 183 190 192 190 193 189 187 181 185 165 158 163 157 151 155 163 164 161 154 153 159 162 175 177 176 174 170 168 151 149 162 170 180 209 235 256 322 174 203 167 266 259 225 190 228 174 258 218 214 217 226 238 244 250 260 261 261 266 264 265 253 251 256 257 257 247 259 236 247 262 258 257 261
263 59 317 322 290 284 285 275 261 289 327 230 245 252 303 291 162 169 175 185 186 186 192 190 181 188 193 190 189 192 186 182 177 177 171 169 158 161 155 169 174 158 150 155 165 168 168 174 170 160 161 166 157 162 179 178 190 188 161 158 164 164 166 135 180 187 321 346 219 195 218 251 213 273 282 239 241 234 236 242 243 253 257 254 247 244 248 252 260 255 254 270 296 276 251 257 278
314 30 337 297 303 298 281 266 266 307 308 265 190 199 265 294 132 155 175 181 191 195 192 191 181 185 189 188 190 187 190 178 178 177 182 175 166 172 159 168 158 158 158 164 161 162 156 159 163 151 148 157 154 165 168 177 172 162 157 153 146 171 174 128 152 177 243 308 318 299 272 271 255 251 261 261 241 235 230 242 241 245 247 250 242 241 243 248 254 258 236 232 232 225 232 237 239
126 2 265 262 255 250 253 252 252 235 250 287 232 217 298 312 112 113 197 213 200 203 196 190 182 182 183 187 184 187 182 178 184 177 174 180 177 177 167 153 162 168 157 155 153 159 160 156 150 145 143 153 156 161 155 149 145 149 143 138 140 139 150 147 197 73 359 314 274 268 290 292 272 236 208 222 247 243 248 241 239 239 242 248 252 256 254 252 245 243 237 229 223 239 224 237 239
43 236 237 202 219 236 212 252 255 233 255 250 42 251 295 301 65 136 209 187 200 183 185 189 182 181 182 185 182 181 183 178 182 175 175 175 178 179 166 173 158 154 153 148 150 150 151 144 149 149 148 149 151 141 141 138 138 134 127 137 140 135 131 138 147 144 178 204 260 251 221 250 287 292 304 273 262 252 249 250 266 269 281 266 251 252 252 241 234 238 239 224 228 235 248 245 243
221 226 234 225 214 227 224 215 228 261 260 88 307 280 261 293 68 98 187 123 148 163 174 183 186 182 179 180 180 177 180 179 179 173 174 170 169 177 167 161 157 156 153 160 150 144 147 144 145 137 137 137 135 135 136 134 133 131 123 124 121 126 144 158 180 175 196 262 246 241 291 283 282 289 255 249 272 273 262 271 269 270 271 280 278 279 274 267 261 258 250 236 233 230 243 255 264
221 229 227 244 233 234 233 198 232 236 286 96 308 284 265 240 186 243 179 123 145 163 175 180 182 182 177 178 175 169 178 176 176 173 175 175 176 173 163 153 152 157 163 152 142 140 142 140 142 141 134 135 132 134 133 132 131 123 124 132 134 129 161 209 228 244 240 240 264 254 236 265 269 269 260 268 231 264 274 264 273 281 281 279 291 296 293 277 271 266 265 259 243 239 231 232 235
217 223 218 234 246 237 254 228 257 289 102 352 227 273 252 257 280 325 207 147 118 192 201 183 182 179 175 171 168 166 175 176 174 174 173 174 168 163 156 156 152 157 152 142 139 142 134 142 136 134 133 132 131 134 137 140 139 133 133 143 153 153 196 231 241 257 228 277 258 270 285 282 267 268 305 297 302 291 270 256 267 268 268 281 285 284 282 274 266 262 257 256 260 244 247 243 245
214 227 237 246 255 265 258 260 256 281 342 129 153 229 26 317 67 122 107 106 147 170 189 173 175 173 168 165 166 166 169 171 173 170 169 165 163 162 160 158 157 163 148 148 148 140 147 143 143 140 144 144 143 141 146 149 143 141 144 148 155 187 188 217 226 268 276 254 274 282 277 275 268 291 296 311 300 284 285 293 283 281 281 291 290 281 277 272 261 262 262 263 263 256 249 251 251
204 221 243 238 243 251 271 338 290 309 276 213 173 285 332 358 133 140 127 134 132 150 160 160 163 166 166 167 169 167 165 168 167 164 161 161 163 164 161 163 158 163 154 156 153 154 154 144 145 146 149 151 150 150 151 149 148 148 150 155 174 175 213 212 216 227 235 255 255 275 269 263 269 294 271 287 282 277 289 290 280 268 268 268 274 283 283 278 277 275 272 263 257 246 249 247 252
160 213 220 231 311 259 262 251 282 276 245 255 21 268 257 86 263 114 138 151 141 156 160 162 162 165 167 168 167 165 162 164 167 162 158 162 167 168 166 168 163 162 161 158 154 160 148 149 148 152 153 159 156 166 152 155 154 155 167 168 188 191 200 229 233 223 244 235 261 255 253 295 340 283 287 277 276 295 288 291 295 294 295 281 272 270 272 273 274 271 269 268 270 265 255 256 257
144 220 216 97 250 298 275 276 217 268 279 289 203 282 299 192 174 179 159 151 155 167 163 160 160 163 169 167 166 163 161 163 164 158 159 168 168 168 167 172 165 163 165 156 158 160 154 154 151 152 160 161 164 172 162 168 168 176 168 190 191 218 228 241 246 236 230 237 221 241 250 242 261 299 320 312 309 288 289 282 284 294 293 292 290 285 280 286 287 280 275 271 269 276 275 268 257
241 280 91 218 183 217 203 262 253 258 259 291 265 318 308 341 7 182 176 173 171 169 166 160 166 169 170 165 164 161 162 164 166 160 163 169 171 171 170 173 164 164 164 160 163 161 159 159 156 159 165 165 169 180 170 172 186 182 188 187 205 203 234 230 227 239 236 236 249 255 265 291 276 248 256 277 293 294 296 299 294 290 286 282 275 273 279 279 281 279 277 272 263 257 261 264 265
235 258 247 238 272 250 217 222 273 312 289 290 270 245 294 206 39 276 161 182 174 170 170 173 171 171 169 166 166 164 166 168 166 163 166 171 171 174 172 173 171 164 172 171 168 167 162 161 167 171 171 173 176 189 182 199 188 187 201 200 195 226 235 230 228 233 239 254 270 283 279 254 269 283 275 300 290 299 301 295 294 285 286 284 292 295 295 287 279 276 282 282 284 283 272 270 270
191 214 229 200 233 352 294 239 251 253 278 282 311 296 75 11 310 273 130 168 177 176 173 172 173 171 168 166 166 165 166 168 167 167 169 171 170 175 171 173 172 165 178 176 169 173 167 165 176 180 181 180 189 194 196 204 193 202 215 223 205 210 226 228 225 231 256 249 248 260 271 289 328 275 320 292 291 287 279 279 284 289 285 291 295 291 289 284 278 275 275 276 277 276 275 274 270
202 206 218 211 219 214 230 237 198 258 254 274 275 267 289 174 208 179 126 146 177 179 173 171 172 169 166 166 166 163 165 168 168 172 169 171 170 175 172 172 170 168 180 185 174 178 172 175 182 187 189 189 192 194 200 197 198 201 209 221 231 212 225 231 240 238 247 266 272 252 257 279 271 291 290 293 288 290 302 306 296 297 302 291 285 284 281 283 285 285 282 279 276 270 268 267 270